Regional Weather Roundup
Issued by NWS

Home | Current Version | Previous Version | Graphics & Text | Print | Product List | Glossary On
Versions: 1 2 3 4 5 6 7 8 9 10 11 12 13 14 15 16 17 18 19 20 21 22 23 24 25 26 27 28 29 30 31 32 33 34 35 36 37 38 39 40 41 42 43 44 45 46 47 48 49 50
000
ASUS43 KMKX 291921
RWRWI

WISCONSIN REGIONAL WEATHER ROUNDUP
NATIONAL WEATHER SERVICE MILWAUKEE/SULLIVAN WI
200 PM CDT MON JUN 29 2015

NOTE: "FAIR" INDICATES FEW OR NO CLOUDS BELOW 12,000 FEET WITH NO
SIGNIFICANT WEATHER AND/OR OBSTRUCTIONS TO VISIBILITY.

WIZ001-002-006>008-014>016-023>028-292000-
NORTHWEST WISCONSIN

CITY           SKY/WX    TMP DP  RH WIND       PRES   REMARKS
SUPERIOR ARPT  PTSUNNY   63  61  94 CALM      29.76F
ASHLAND        CLOUDY    65  62  90 SW6       29.76S
HAYWARD        CLOUDY    62  58  86 CALM      29.82R
SIREN          SUNNY     80  60  51 NW8       29.78F HX  81
CUMBERLAND     MOSUNNY   77  57  50 NW8       29.79F
RICE LAKE      PTSUNNY   80  60  50 W6        29.79F HX  81
CHETEK         PTSUNNY   79  64  61 MISG      29.78F HX  81
LADYSMITH      CLOUDY    75  64  67 S7        29.80F THUNDER
EAU CLAIRE     PTSUNNY   77  65  66 NW5       29.78F
MENOMONIE      SUNNY     80  64  57 W7        29.79F HX  82
NEW RICHMOND   MOSUNNY   80  62  54 NW9       29.80F HX  81
OSCEOLA        MOSUNNY   81  63  54 W9        29.81F HX  82
$$

WIZ003>005-009-010-017-018-292000-
NORTH CENTRAL WISCONSIN

CITY           SKY/WX    TMP DP  RH WIND       PRES   REMARKS
MANITOWISH WTR MOSUNNY   72  61  68 SW8       29.77F THUNDER
ARBOR VITAE    MOSUNNY   77  62  59 SW10      29.78S
WOODRUFF       MOSUNNY   77  62  59 SW10      29.78S
RHINELANDER    PTSUNNY   77  57  50 VRB7      29.78F
EAGLE RIVER    MOSUNNY   76  56  50 SW10      29.76F
LAND O LAKES   MOSUNNY   75  58  54 W6        29.77S
PHILLIPS       PTSUNNY   72  60  65 NW18G26   29.80R THUNDER
TOMAHAWK       PTSUNNY   75  58  56 CALM      29.78F
MEDFORD        PTSUNNY   74  60  60 W3        29.80S
MERRILL        MOSUNNY   76  60  57 W9        29.79F
$$

WIZ029-030-035-036-043>047-292000-
CENTRAL WISCONSIN

CITY           SKY/WX    TMP DP  RH WIND       PRES   REMARKS
WAUSAU         SUNNY     79  56  45 W8        29.77F HX  80
MOSINEE        MOSUNNY   75  61  60 W8        29.80F
MARSHFIELD     NOT AVBL
STEVENS POINT  SUNNY     73  58  59 W7        29.80F
WAUPACA        CLOUDY    78  62  56 S5        29.79F HX  80
WAUTOMA        PTSUNNY   77  63  61 CALM      29.80F
WISC RAPIDS    PTSUNNY   77  58  51 MISG      29.81F
CAMP DOUGLAS   MOSUNNY   75  70  83 NW8       29.81F
$$

WIZ011>013-019>022-031-037>040-048>050-292000-
NORTHEAST WISCONSIN

CITY           SKY/WX    TMP DP  RH WIND       PRES   REMARKS
ANTIGO         PTSUNNY   71  60  67 SE10      29.79F
SHAWANO        CLOUDY    75  59  57 SE8       29.78F
OCONTO         MOSUNNY   77  58  50 S12       29.78F
STURGEON BAY   SUNNY     75  55  50 S14       29.81F
GREEN BAY      CLOUDY    77  59  53 S8        29.78F
MANITOWOC      MOSUNNY   73  60  63 MISG      29.81F
APPLETON       PTSUNNY   75  57  53 S9        29.80F
CLINTONVILLE   CLOUDY   N/A N/A N/A S8        29.78F
OSHKOSH        PTSUNNY   72  62  71 S13       29.80S
$$

WIZ032>034-041-042-053>061-292000-
SOUTHWEST WISCONSIN

CITY           SKY/WX    TMP DP  RH WIND       PRES   REMARKS
LA CROSSE      SUNNY     80  63  55 NW7       29.80F HX  81
SPARTA         MOSUNNY   78  58  50 W3        29.81F
VIROQUA        PTSUNNY   76  62  61 N7        29.83F
BOSCOBEL       PTSUNNY   77  63  61 NW5       29.81F
PRAIRIE DU CHI SUNNY     78  61  55 NW8       29.81F HX  80
PLATTEVILLE    PTSUNNY   76  63  63 W7        29.82F
$$

WIZ056-057-062-063-064-067-068-292000-
SOUTH CENTRAL WISCONSIN

CITY           SKY/WX    TMP DP  RH WIND       PRES   REMARKS
REEDSBURG      PTSUNNY   76  63  63 N6        29.80F
BARABOO/DELLS  MOSUNNY   77  56  49 NW9       29.81S
LONE ROCK      PTSUNNY   75  62  64 W7        29.81F
MINERAL POINT  MOSUNNY   77  63  61 CALM      29.82F
MADISON        PTSUNNY   74  61  63 CALM      29.80S
MIDDLETON      MOSUNNY   77  61  56 W6        29.81S
WATERTOWN      LGT RAIN  65  65 100 SW3       29.81F
MONROE         CLOUDY    73  61  64 NW8       29.82R
JANESVILLE     PTSUNNY   75  61  60 CALM      29.80F
$$

WIZ051-052-058>065-066-070>072-292000-
SOUTHEAST WISCONSIN

CITY           SKY/WX    TMP DP  RH WIND       PRES   REMARKS
MILWAUKEE      PTSUNNY   73  60  63 SE6       29.82S
WAUKESHA       PTSUNNY   72  57  60 SE6       29.82F
MILWAUKEE/TIMM CLOUDY    73  55  53 E5        29.82F
RACINE         MOSUNNY   71  60  68 E8        29.83F
BURLINGTON     PTSUNNY   70  60  70 CALM      29.81F
KENOSHA        CLOUDY    70  63  78 SE8       29.82F
FOND DU LAC    LGT RAIN  66  63  90 CALM      29.80F
SHEBOYGAN      SUNNY     75  60  59 VRB7      29.81F
WEST BEND      MOSUNNY   73  55  53 E9        29.81F
JUNEAU         LGT RAIN  66  64  92 W3        29.83S
$$

LSZ147-162-292000-
LAKE SUPERIOR

STATION/POSITION TIME  TEMP    WIND        PRES    WAVE
                       AIR SEA DIR/SP/G            HT/PER
                 (UTC) (F)     (DEG/KT/KT) (MB)    (FT/S)
W MID LAKE BUOY  1850   47 38   60/  6/  8 1006.6F   0
DEVILS ISLAND    1900   63     210/  7/  8 1007.1F
SAXON HARBOR     1800          340/  6/ 24 1007.5R
$$

LMZ867-665-643>646-292000-
LAKE MICHIGAN

STATION/POSITION TIME  TEMP    WIND        PRES    WAVE
                       AIR SEA DIR/SP/G            HT/PER
                 (UTC) (F)     (DEG/KT/KT) (MB)    (FT/S)
CHAMBERS ISLAND  1800   75     160/  5/ 10 1009.1
S GREEN BAY BUOY 1800   72 72  200/  8/  8 1010.8
N MID LAKE BUOY  1850   57 52  210/  8/  8 1009.5F   0
NORTHPORT PIER   1800   71     150/  8/ 11 1009.5
ALGOMA LAKESHORE 1825          180/  3/  4   N/A
KEWAUNEE LAKESHO 1900   63     170/  8/ 11 1008.9F
SHEBOYGAN LAKESH 1900   61     160/  8/  9 1010.0F
PORT WASHINGTON  1800   67     100/  3/  4 1010.5F
ATWATER BUOY     1900   62 62  110/  4/  6 1011.2F
MILWAUKEE LAKESH 1900   63     100/  5/  5   N/A
KENOSHA   LAKESH 1900   65     120/  5/  6 1009.8S
$$

TC  - TEMPERATURE IN CELSIUS
VSB - VISIBILITY IN STATUTE MILES
WCI - WIND CHILL INDEX
HX  - HEAT INDEX



USA.gov is the U.S. government's official web portal to all federal, state and local government web resources and services.